Home   Weather   Boston   Past weeks

Flag for USA Past Weather in Boston, Massachusetts, USA — Yesterday and Last 2 Weeks

Now
40 °F

Overcast.


Feels Like: 32 °F
Forecast: 36 / 40 °F
Wind: 15 mph from Northeast

Location: Logan International Airport

Current Time: Feb 25, 2018 at 6:38:28 pm

Latest Report: Feb 25, 2018 at 5:54 pm


Visibility: 2 mi

Pressure: 29.99 "Hg

Humidity: 100%

Dew Point: 40 °F

Location of BostonLocation

Past Weather in Boston — Graph

°F

Boston Temperature Yesterday

Maximum temperature yesterday: 54 °F (at 11:54 am)
Minimum temperature yesterday: 39 °F (at 1:05 am)
Average temperature yesterday: 46 °F

High & Low Weather Summary for the Past Weeks

 TemperatureHumidityPressure
High71 °F (Feb 21, 1:54 pm)100% (Feb 10, 8:54 pm)30.84 "Hg (Feb 10, 8:54 pm)
Low25 °F (Feb 13, 6:54 am)29% (Feb 22, 1:54 am)29.50 "Hg (Feb 16, 9:54 am)
Average41 °F77%30.22 "Hg
* Reported Feb 10 5:54 pm — Feb 25 5:22 pm, Boston. Weather by CustomWeather, © 2018

Note: Actual official high and low records may vary slightly from our data, if they occured in-between our weather recording intervals... More about our weather records

Advertising

Boston Weather History for the Previous 24 Hours

Scroll right to see more
 ConditionsComfort  
Time TempWeatherWind HumidityBarometerVisibility
5:22 pm
Sun, Feb 25
40 °FFog.12 mph97%30.00 "Hg1 mi
4:54 pm40 °FLight rain. Fog.13 mph97%30.02 "Hg1 mi
4:15 pm40 °FRain. Fog.12 mph97%30.01 "Hg1 mi
2:54 pm39 °FLight rain. Fog.21 mph96%30.00 "Hg3 mi
2:13 pm39 °FRain. Fog.16 mph96%30.07 "Hg4 mi
1:54 pm39 °FRain. Fog.16 mph93%30.08 "Hg4 mi
1:05 pm39 °FRain. Fog.22 mph96%30.10 "Hg3 mi
12:54 pm39 °FLight rain. Fog.21 mph96%30.10 "Hg4 mi
12:08 pm39 °FRain. Fog.14 mph93%30.17 "Hg6 mi
11:54 am39 °FLight rain. Fog.22 mph96%30.14 "Hg4 mi
11:06 am39 °FLight rain. Fog.21 mph93%30.19 "Hg5 mi
10:54 am39 °FRain. Fog.21 mph93%30.18 "Hg4 mi
9:54 am39 °FLight rain. Fog.16 mph89%30.22 "Hg4 mi
9:01 am39 °FLight rain. Mostly cloudy.16 mph86%30.25 "Hg8 mi
7:44 am38 °FLight rain. Cloudy.17 mph83%30.26 "Hg6 mi
7:00 am37 °FLight rain. Mostly cloudy.16 mph82%30.28 "Hg9 mi
6:37 am37 °FSleet. Cloudy.16 mph82%30.28 "Hg8 mi
6:21 am38 °FSleet. Fog.18 mph79%30.30 "Hg6 mi
5:54 am39 °FMostly cloudy.15 mph70%30.33 "Hg10 mi
4:54 am39 °FMostly cloudy.17 mph76%30.29 "Hg10 mi
3:54 am39 °FOvercast.17 mph73%30.28 "Hg10 mi
2:54 am39 °FOvercast.15 mph73%30.31 "Hg10 mi
1:54 am40 °FPassing clouds.15 mph77%30.30 "Hg10 mi
12:54 am38 °FPassing clouds.8 mph73%30.29 "Hg10 mi
11:54 pm
Sat, Feb 24
39 °FPassing clouds.9 mph67%30.29 "Hg10 mi
10:54 pm39 °FPassing clouds.7 mph70%30.27 "Hg10 mi
9:54 pm41 °FPassing clouds.7 mph65%30.26 "Hg10 mi
8:54 pm44 °FPartly cloudy.8 mph63%30.24 "Hg10 mi
7:54 pm45 °FMostly cloudy.3 mph71%30.20 "Hg10 mi
6:54 pm44 °FMostly cloudy.6 mph76%30.18 "Hg10 mi
Weather by CustomWeather, © 2018

See weather overview